STARLINK-5564, 56134

Orbit data source: Space-Track

STARLINK-5564, 56134 is a payload satellite owned by SpaceX/Seattle (US) in LEO that was launched on Wed, 29 Mar 2023 UTC via an FALCON 9 launch vehicle from the Air Force Eastern Test Range (AFETR). Payload-class satellites include a variety of spacecraft equipped with specific instruments for various scientific and technological missions. These include communications satellites like Starlink; space stations such as the ISS; scientific satellites like the Hubble; Earth observation satellites from companies like Planet Labs, Umbra, and HawkEye 360; GPS; miniature CubeSats for education and research; and military/defense satellites.

Loading next visibility...
Identifier
56134, 2023-046AU
Orbit
LEO
Country
Flag of USUS
Related business
Manufacturer
SpaceX/Seattle
Mission
Operational Commercial Communications
Bus & Motor
STARLINK, Unknown motor
Mass
305 kg wet, ~290 kg dry
Launch date (UTC)
2023-03-29 (3 years ago)
Launch vehicle
FALCON 9
Launch site
Air Force Eastern Test Range (AFETR)
Object type
Payload
Rocket body
Debris
Shape & HBR
Box + 1 Pan, 10.1 m
Radar Cross Section
11.087 m², Large (>1 m²)

Expand to show TLE details & history
Last TLE update: 2 days ago

TLE from 2 days ago
0 STARLINK-5564
1 56134U 23046AU  26171.34788778  .00002639  00000-0  10532-3 0  9997
2 56134  43.0026 286.9492 0000932 158.6446 201.4444 15.27600009177895
Epoch: 2026-06-20T08:20Z
TLE epoch observation values (Epoch: 2026-06-20T08:20:57.504Z)
Latitude
-0.00005°
Longitude
-106.85426°
Altitude
483.36 km
Speed
7.625 km/s
True Right ascension
19h 07m 47s
True Declination
0° 00' 00"
Sunlit
Object was in full shadow at epoch
Visualization orbit readout
Latitude
Unknown
Longitude
Unknown
Altitude
Unknown
Speed
Unknown
Apparent Right ascension
Unknown
Apparent Declination
Unknown
Sunlit
N/A
Visualization observer readout
Local Sidereal Time
21:30:04
Azimuth
Unknown
Elevation
Unknown
Doppler factor
Unknown
Orbital elements
Apogee altitude
485.574 km
Perigee altitude
484.294 km
Semi-major axis
6,863.071 km
Eccentricity
0.00009
Inclination
43.0026°
RAAN
286.9492°
Arg. of periapsis
158.6446°
True anomaly
201.4405°
Mean anomaly
201.4444°
Eccentric anomaly
201.44245°
Mean motion
3.81738 °/min
Orbital period
94.31 mins
BSTAR
0.00010532
Loading maneuver chart data...
Computing Atmospheric mass density...
Loading historical data...
Loading historical data...
Loading historical data...
Loading historical data...
Loading historical data...
Loading historical data...
Loading historical data...

Documentation

Showing up to 5 results
|